Vertical_Velocity
2 2 -1 -1 -0 3 -0 -2 1 -1 1 0 -1 0 0 1 1 0 1 -0 0 1 1 -1 -1 -2 1 -2 -2 1 1 4 18 9 -1 1 -2 -5 -2 2 2 1 6
9 -3 -2 -0 1 -1 -0 0 1 1 2 0 -0 0 -1 -0 1 4 4 0 1 0 1 0 -1 -2 -3 -2 -2 -4 0 -1 -9 -2 0 -1 2 9 3 6 2 -5 4
0 -2 0 -3 -1 -3 -2 -1 -0 3 4 2 0 0 -2 -1 -2 -2 0 2 1 1 0 -0 -1 0 -0 -2 -3 -0 -4 -4 2 -7 -0 1 -1 -1 -1 5 -2 -7 1
0 4 -2 2 -2 -1 -1 1 1 -0 -2 -3 -5 -4 -6 -5 -5 -5 -3 -2 -3 -2 -0 1 0 0 0 0 -2 -3 -0 -0 -2 -0 -2 -11 -5 -1 -1 2 -7 -2 1
-0 -1 -1 -1 -1 2 1 -0 -2 -2 1 -1 -1 2 -1 -4 -7 -7 -10 -8 -5 -3 0 -0 -3 -2 -1 -1 -1 -1 -4 -1 -0 2 -1 7 -2 -4 -2 -1 -6 1 4
-0 -1 0 -1 -1 -0 -2 -4 -2 -2 -4 -2 -4 -6 -6 -8 -8 -6 -8 -10 -9 -9 -11 -8 -1 -1 -4 -5 -1 -3 -2 -3 -3 0 1 -2 1 5 -3 -1 -5 6 3
3 1 -1 -3 -3 -2 -0 -1 -2 -4 -8 -5 -9 -5 -3 -8 -9 -6 -6 -5 -4 -5 -7 -6 -11 -9 -3 -2 -4 -4 -3 -3 -2 -4 -1 -0 -2 -10 -10 -17 -6 5 4
0 -0 -2 -3 -5 -5 -4 -7 -8 -8 -2 0 -5 -7 -1 3 -0 -8 -8 -9 -4 -8 -5 -7 -8 -12 -13 -6 -0 0 -1 -3 -0 0 0 1 2 4 -2 0 4 3 -8
-2 -2 -3 -4 -1 -1 -0 -2 -1 1 -2 -1 4 0 -10 -1 -6 12 6 5 5 5 3 1 -1 -5 -9 -9 -9 -7 1 1 1 1 -1 2 2 2 11 4 5 5 3
-1 3 5 2 2 3 4 5 6 5 2 -2 -5 -3 -6 -15 -11 -16 2 5 9 -5 -11 -4 -3 -0 0 1 -1 -3 -1 -4 1 2 3 0 2 1 5 5 -1 -0 7
3 3 3 4 5 3 0 -2 -5 -3 -3 -5 -6 -7 -7 -8 -10 -13 -18 -0 1 -2 0 5 6 0 -3 -5 -9 -6 3 6 2 3 3 5 2 3 -2 1 -3 -1 2
2 0 -0 -0 -0 -1 1 3 -2 -5 -9 -6 -5 -5 -1 -3 -3 -4 -4 -4 -1 1 -4 -8 1 2 -2 -7 -9 -11 -1 4 1 4 2 5 7 3 -1 4 -13 3 -8
2 -1 1 2 -2 -2 -5 -7 -5 -3 -6 -4 -1 -1 -1 -0 2 -2 -5 -3 -6 -0 -3 -0 -1 -6 -2 -2 -3 -11 -1 -2 -3 2 3 -2 1 5 2 3 -0 4 0
-1 -2 -3 -5 -6 -7 -9 -4 -5 -5 -7 -6 -2 -0 -0 -5 -3 -2 -2 -2 -1 -5 -0 -3 0 2 -4 -2 -0 -7 -3 -4 -1 3 1 1 3 1 6 0 -2 -0 1
-3 -5 -3 -2 -1 -2 1 -5 -7 -4 -4 -2 1 -0 -1 -2 -1 -1 -4 -2 -8 -7 13 17 -5 -3 2 -6 -3 -3 -2 -3 -1 -3 -0 -1 2 2 3 3 -1 2 -1
-2 -2 -0 0 -1 2 -2 -1 -2 -2 -1 -1 -1 -1 -2 -2 -2 -2 -2 -1 -2 -11 -18 -11 8 -1 -2 -3 -2 -3 1 1 -0 1 -0 -2 -2 -0 3 3 0 2 -0
-2 -2 0 1 -3 -3 -3 -2 -1 -2 -2 -3 -2 -2 -3 -1 -0 -1 -3 -2 -1 -7 -13 10 -8 -0 -2 1 -2 2 1 2 1 -1 -0 2 2 2 5 3 -3 6 -2
-3 -3 -2 -3 -4 -1 -4 -0 2 -2 -2 -1 -2 -3 -1 -1 -1 -3 -2 2 0 -1 -3 2 -2 1 -3 -8 2 -1 -0 -2 1 0 2 2 -1 1 2 6 3 -1 -7
-2 -4 -4 -1 -2 -3 -1 -1 0 -0 -1 -1 -2 -2 -2 -3 1 -1 0 1 -0 -1 -1 -3 -3 -2 1 -5 -2 2 3 -4 -1 3 1 1 1 1 3 4 3 6 3
-4 0 -2 -2 -3 -2 -1 0 1 1 -0 -1 -1 -0 -0 -1 -0 -0 0 -1 1 0 -1 -1 -6 0 -3 -1 -3 2 2 -0 -1 0 2 0 1 -1 1 4 1 3 7
-2 -0 1 -3 -3 -0 0 -1 -0 -1 -0 1 0 0 1 -1 -3 -2 -3 0 -1 -1 -1 -2 0 0 -0 -2 -2 0 6 -2 1 4 0 -0 -2 1 1 2 4 0 2
-3 -5 -3 -1 -1 -1 2 0 1 -0 -1 -2 2 3 -0 0 1 2 -1 -3 -2 -0 1 -2 -2 0 1 1 0 -0 1 3 0 1 2 -2 1 2 2 2 1 4 3
-2 -2 -4 -4 -2 -1 -1 -0 -2 -2 -2 0 -0 -1 1 -2 -3 1 1 -1 -2 -2 -3 -0 1 -2 2 -0 -0 -1 -0 2 -1 -5 2 0 1 1 1 1 2 -1 5
-4 -2 -3 -1 -2 -0 -0 -0 1 -1 -2 -3 -3 -1 1 -1 -2 0 1 -0 -0 -0 1 -0 -0 -1 0 -1 -1 1 -0 0 1 0 -2 0 -4 -0 0 1 2 1 -3
-1 -2 -2 -1 -0 1 0 -1 -0 -0 -0 -1 -1 -2 0 -1 -2 -1 -1 -1 -1 -1 0 1 1 -0 -1 -0 -1 -1 1 -0 2 -1 -4 0 -1 -3 -3 0 -0 -1 -2
-2 -2 -2 -0 -0 -1 -1 -0 1 1 0 1 -3 -2 -2 0 -1 -1 -0 -1 0 0 2 -0 1 0 0 -0 -0 -0 1 3 2 -1 -4 -1 -5 -3 -2 -3 -0 -1 -1
Height
5802 5799 5797 5796 5794 5791 5788 5785 5783 5780 5778 5776 5774 5772 5770 5769 5767 5765 5764 5762 5761 5759 5757 5757 5756 5755 5754 5754 5755 5756 5756 5755 5752 5751 5757 5760 5762 5760 5763 5763 5766 5767 5771
5795 5793 5792 5789 5785 5782 5780 5778 5774 5772 5770 5768 5765 5763 5761 5759 5757 5755 5754 5752 5751 5750 5748 5747 5746 5746 5746 5744 5744 5745 5747 5748 5747 5749 5751 5751 5753 5754 5756 5757 5758 5758 5762
5787 5785 5782 5781 5777 5773 5771 5768 5765 5763 5760 5757 5754 5752 5750 5748 5746 5743 5741 5739 5738 5737 5736 5735 5735 5734 5733 5733 5733 5733 5734 5735 5737 5736 5738 5740 5742 5745 5748 5751 5752 5751 5754
5781 5777 5774 5770 5767 5763 5761 5759 5756 5752 5750 5747 5744 5741 5737 5735 5733 5730 5728 5725 5723 5721 5720 5720 5719 5718 5718 5718 5719 5719 5719 5721 5723 5726 5725 5728 5732 5734 5736 5740 5742 5742 5746
5771 5768 5763 5760 5757 5753 5750 5747 5744 5742 5739 5735 5731 5727 5723 5720 5716 5714 5711 5709 5706 5704 5703 5702 5702 5701 5700 5700 5701 5702 5703 5704 5706 5708 5713 5715 5716 5721 5724 5728 5729 5730 5736
5761 5757 5753 5749 5745 5742 5739 5736 5732 5728 5724 5719 5714 5710 5706 5702 5697 5693 5690 5687 5685 5682 5681 5680 5679 5679 5679 5680 5680 5682 5683 5686 5688 5690 5693 5698 5703 5706 5711 5715 5716 5718 5724
5751 5747 5742 5737 5734 5731 5726 5720 5714 5710 5705 5701 5696 5692 5686 5681 5675 5670 5666 5662 5659 5657 5654 5652 5651 5652 5654 5655 5657 5658 5659 5662 5666 5670 5672 5676 5681 5686 5692 5698 5702 5708 5712
5741 5735 5730 5726 5722 5716 5710 5705 5699 5693 5687 5682 5674 5668 5663 5658 5653 5644 5638 5634 5630 5625 5622 5619 5620 5621 5622 5624 5628 5632 5634 5637 5640 5644 5649 5654 5659 5665 5670 5677 5684 5691 5697
5730 5725 5719 5714 5708 5702 5695 5688 5682 5674 5666 5659 5650 5639 5631 5626 5617 5615 5607 5600 5594 5589 5586 5585 5583 5582 5583 5586 5591 5598 5605 5609 5612 5616 5621 5628 5635 5643 5652 5656 5663 5671 5681
5720 5714 5708 5701 5693 5686 5678 5670 5661 5650 5639 5630 5620 5612 5602 5594 5585 5583 5577 5572 5565 5555 5549 5544 5540 5539 5542 5547 5551 5557 5567 5574 5581 5586 5591 5598 5606 5615 5627 5635 5643 5653 5662
5708 5701 5694 5685 5676 5666 5655 5645 5635 5627 5617 5606 5598 5588 5578 5566 5553 5543 5539 5536 5530 5525 5520 5515 5511 5507 5504 5505 5509 5519 5529 5537 5546 5553 5560 5567 5576 5586 5595 5610 5619 5632 5643
5694 5686 5677 5667 5657 5646 5636 5626 5615 5605 5595 5583 5570 5557 5544 5532 5520 5510 5503 5501 5502 5499 5494 5491 5488 5484 5480 5479 5479 5481 5491 5501 5511 5522 5529 5539 5547 5557 5567 5580 5593 5607 5618
5679 5670 5660 5650 5639 5629 5618 5607 5595 5581 5568 5555 5539 5526 5514 5505 5496 5488 5482 5479 5480 5481 5478 5475 5472 5466 5461 5460 5460 5458 5461 5466 5476 5488 5500 5509 5520 5531 5541 5551 5567 5579 5593
5665 5655 5645 5634 5623 5611 5597 5584 5569 5553 5538 5524 5511 5499 5490 5483 5477 5472 5467 5463 5463 5463 5461 5457 5453 5450 5446 5443 5445 5443 5443 5444 5450 5458 5470 5483 5494 5503 5516 5525 5539 5554 5571
5650 5640 5629 5617 5603 5590 5575 5560 5545 5528 5514 5502 5491 5482 5475 5468 5464 5459 5454 5448 5443 5442 5445 5442 5438 5433 5430 5427 5428 5428 5429 5430 5433 5437 5444 5454 5467 5479 5490 5501 5513 5529 5547
5635 5623 5611 5598 5584 5569 5553 5538 5522 5506 5493 5483 5476 5470 5464 5459 5454 5449 5443 5438 5432 5426 5424 5423 5422 5417 5414 5412 5412 5411 5414 5417 5420 5423 5426 5434 5443 5454 5468 5479 5490 5503 5521
5618 5606 5593 5579 5564 5549 5532 5516 5499 5486 5478 5472 5466 5460 5454 5450 5445 5439 5433 5426 5419 5412 5406 5412 5405 5403 5400 5397 5396 5395 5396 5401 5406 5411 5415 5419 5425 5433 5443 5456 5468 5481 5496
5599 5588 5574 5559 5544 5526 5508 5494 5482 5473 5468 5463 5458 5452 5447 5441 5435 5429 5422 5415 5408 5400 5395 5397 5393 5389 5385 5382 5381 5381 5380 5383 5390 5397 5403 5408 5412 5418 5425 5434 5445 5459 5471
5583 5569 5555 5538 5520 5503 5488 5477 5470 5464 5459 5454 5449 5443 5437 5432 5426 5420 5412 5404 5396 5390 5384 5381 5380 5375 5369 5364 5364 5366 5366 5368 5373 5380 5388 5394 5401 5407 5412 5419 5427 5439 5453
5567 5550 5531 5514 5497 5483 5473 5465 5459 5454 5450 5445 5439 5434 5428 5422 5415 5408 5400 5393 5386 5380 5375 5368 5365 5359 5353 5348 5346 5348 5350 5354 5358 5364 5372 5381 5389 5396 5402 5409 5416 5423 5433
5545 5529 5510 5492 5480 5469 5461 5455 5450 5445 5441 5436 5431 5425 5419 5411 5403 5396 5388 5382 5376 5370 5364 5357 5349 5341 5335 5332 5330 5332 5335 5339 5346 5351 5357 5366 5377 5385 5393 5399 5405 5412 5420
5524 5508 5492 5479 5467 5458 5452 5446 5442 5437 5432 5427 5422 5417 5410 5402 5394 5386 5379 5372 5366 5360 5353 5344 5334 5326 5319 5316 5316 5318 5321 5325 5331 5337 5343 5352 5364 5374 5382 5390 5397 5403 5411
5504 5489 5477 5466 5456 5449 5443 5438 5433 5428 5423 5418 5413 5407 5399 5392 5384 5377 5370 5363 5357 5349 5340 5331 5321 5312 5307 5303 5303 5304 5306 5312 5317 5324 5331 5340 5351 5362 5371 5379 5387 5394 5401
5489 5476 5465 5455 5447 5441 5436 5431 5426 5420 5414 5409 5403 5397 5390 5383 5375 5368 5361 5355 5349 5341 5331 5321 5310 5301 5296 5293 5292 5292 5292 5297 5304 5311 5318 5328 5338 5350 5360 5369 5377 5385 5391
5476 5465 5454 5446 5440 5434 5429 5423 5418 5413 5407 5401 5395 5388 5382 5374 5366 5359 5354 5349 5342 5332 5323 5314 5303 5294 5290 5287 5285 5285 5286 5289 5294 5301 5310 5320 5329 5339 5349 5359 5367 5374 5382
5464 5454 5445 5438 5432 5426 5421 5416 5411 5405 5400 5393 5387 5380 5373 5365 5358 5352 5347 5342 5336 5327 5319 5308 5299 5291 5285 5283 5281 5282 5283 5286 5290 5296 5304 5314 5321 5329 5339 5348 5356 5364 5372